Hagerstown, MD

6:45 AM EDT on May 30, 2017 (GMT -0400)
Hagerstown Regional-Henson

Weather History for KHGR - September, 2012

Change the Weather History Date:

Thursday, September 6, 2012

  Actual Average Record
Temperature  
Mean Temperature 78 °F 69 °F  
Max Temperature 86 °F 79 °F 95 °F (1998)
Min Temperature 69 °F 60 °F 45 °F (2000)
Degree Days  
Heating Degree Days 0 1  
Month to date heating degree days 0 1  
Since 1 July heating degree days 0 6  
Cooling Degree Days 13 5  
Month to date cooling degree days 82 33  
Year to date cooling degree days 1218 901  
Growing Degree Days 28 (Base 50)    
Moisture  
Dew Point 69 °F    
Average Humidity 74    
Maximum Humidity 90    
Minimum Humidity 57    
Precipitation  
Precipitation 0.00 in 0.10 in 1.40 in (2008)
Month to date precipitation 0.23 0.58  
Year to date precipitation 24.07 27.21  
Sea Level Pressure  
Sea Level Pressure 29.91 in    
Wind  
Wind Speed 4 mph (SSW)    
Max Wind Speed 25 mph    
Max Gust Speed 44 mph    
Visibility 10 miles    
Events      
T = Trace of Precipitation, MM = Missing Value Source: NWS Daily Summary

Daily Weather History Graph

Daily Weather History Graph

Search for Another Location

Airport or City:

Trip Planner

Search our weather history database for the weather conditions in past years. The results will help you decide how hot, cold, wet, or windy it might be!

Date:

Astronomy

Sep. 06, 2012 Rise Set
Actual Time 6:44 AM EDT 7:33 PM EDT
Civil Twilight 6:16 AM EDT 8:00 PM EDT
Nautical Twilight 5:44 AM EDT 8:33 PM EDT
Astronomical Twilight 5:10 AM EDT 9:06 PM EDT
Moon 10:43 PM EDT (9/6) 12:40 PM EDT (9/6)
Length of Visible Light 13h 44m
Length of Day
12h 49m
Waning Gibbous, 67% of the Moon is Illuminated
Sep 6
Waning Gibbous
Sep 8
Last Quarter
Sep 15
New
Sep 22
First Quarter
Sep 29
Full

Hourly Weather History & Observations

Time (EDT) Temp. Heat Index Dew Point Humidity Pressure Visibility Wind Dir Wind Speed Gust Speed Precip Events Conditions
12:53 AM 75.0 °F - 68.0 °F 79% 29.88 in 10.0 mi NE 4.6 mph - N/A   Mostly Cloudy
1:53 AM 73.0 °F - 68.0 °F 84% 29.88 in 10.0 mi NNW 5.8 mph - N/A   Partly Cloudy
2:53 AM 72.0 °F - 68.0 °F 87% 29.88 in 10.0 mi North 6.9 mph - N/A   Clear
3:53 AM 72.0 °F - 66.9 °F 84% 29.88 in 10.0 mi Calm Calm - N/A   Clear
4:53 AM 71.1 °F - 66.9 °F 87% 29.88 in 10.0 mi NNW 4.6 mph - N/A   Clear
5:53 AM 71.1 °F - 66.9 °F 87% 29.88 in 10.0 mi North 4.6 mph - N/A   Partly Cloudy
6:53 AM 71.1 °F - 66.9 °F 87% 29.89 in 10.0 mi NNW 3.5 mph - N/A   Clear
7:53 AM 70.0 °F - 66.9 °F 90% 29.91 in 10.0 mi Calm Calm - N/A   Overcast
8:41 AM 71.6 °F - 66.2 °F 83% 29.89 in 10.0 mi NNW 4.6 mph - N/A   Mostly Cloudy
8:53 AM 71.1 °F - 66.9 °F 87% 29.91 in 9.0 mi NNW 5.8 mph - N/A   Mostly Cloudy
9:53 AM 73.0 °F - 68.0 °F 84% 29.94 in 10.0 mi East 3.5 mph - N/A   Mostly Cloudy
10:00 AM 73.4 °F - 68.0 °F 83% 29.93 in 10.0 mi East 4.6 mph - N/A   Overcast
10:53 AM 75.0 °F - 69.1 °F 82% 29.94 in 10.0 mi Calm Calm - N/A   Overcast
11:42 AM 77.0 °F - 69.8 °F 78% 29.93 in 10.0 mi Calm Calm - N/A   Scattered Clouds
11:53 AM 77.0 °F - 69.1 °F 76% 29.94 in 9.0 mi Calm Calm - N/A   Clear
12:53 PM 80.1 °F 83.2 °F 70.0 °F 71% 29.92 in 10.0 mi SSW 4.6 mph - N/A   Clear
1:39 PM 80.6 °F 84.6 °F 71.6 °F 74% 29.91 in 9.0 mi SW 4.6 mph - N/A   Mostly Cloudy
1:53 PM 82.0 °F 86.3 °F 71.1 °F 69% 29.92 in 8.0 mi West 4.6 mph - N/A   Mostly Cloudy
2:16 PM 82.4 °F 87.2 °F 71.6 °F 70% 29.90 in 9.0 mi Variable 4.6 mph - N/A   Partly Cloudy
2:53 PM 84.9 °F 90.7 °F 72.0 °F 65% 29.91 in 10.0 mi WNW 5.8 mph - N/A   Partly Cloudy
3:53 PM 84.9 °F 89.4 °F 70.0 °F 61% 29.91 in 10.0 mi SW 4.6 mph - N/A   Partly Cloudy
4:53 PM 86.0 °F 90.1 °F 69.1 °F 57% 29.89 in 10.0 mi South 6.9 mph - N/A   Partly Cloudy
5:53 PM 84.9 °F 89.4 °F 70.0 °F 61% 29.89 in 10.0 mi South 8.1 mph - N/A   Partly Cloudy
6:53 PM 82.9 °F 86.5 °F 69.1 °F 63% 29.90 in 10.0 mi SSE 4.6 mph - N/A   Clear
7:53 PM 80.1 °F 83.6 °F 71.1 °F 74% 29.92 in 10.0 mi SSE 4.6 mph - N/A   Clear
8:53 PM 79.0 °F - 71.1 °F 77% 29.93 in 10.0 mi SSE 5.8 mph - N/A   Clear
9:53 PM 77.0 °F - 69.1 °F 76% 29.94 in 10.0 mi South 8.1 mph - N/A   Clear
10:53 PM 75.0 °F - 69.1 °F 82% 29.94 in 10.0 mi SSE 9.2 mph - N/A   Clear
11:53 PM 73.9 °F - 68.0 °F 82% 29.94 in 10.0 mi SSE 8.1 mph - N/A   Clear